Home   Weather   Tamworth   Past weeks

Flag for Australia Past Weather in Tamworth, New South Wales, Australia — Yesterday and Last 2 Weeks

Now
68 °F

Sunny.


Feels Like: 68 °F
Forecast: 52 / 78 °F
Wind: 2 mph from Southeast

Location: Tamworth Airport

Current Time: Apr 24, 2017 at 9:58:56 am

Latest Report: Apr 24, 2017 at 9:30 am


Visibility: N/A

Pressure: 30.18 "Hg

Humidity: 56%

Dew Point: 52 °F

Location of TamworthLocation

Past Weather in Tamworth — Graph

°F

Tamworth Temperature Yesterday

Maximum temperature yesterday: 77 °F (at 2:00 pm)
Minimum temperature yesterday: 55 °F (at 10:30 pm)
Average temperature yesterday: 65 °F

High & Low Weather Summary for the Past Weeks

 TemperatureHumidityPressure
High79 °F (Apr 9, 2:00 pm)94% (Apr 24, 6:30 am)30.42 "Hg (Apr 24, 6:30 am)
Low45 °F (Apr 11, 5:30 am)24% (Apr 16, 3:00 pm)29.80 "Hg (Apr 9, 7:00 pm)
Average62 °F61%30.17 "Hg
* Reported Apr 9 8:00 am — Apr 24 8:30 am, Tamworth, Weather by CustomWeather, © 2017

Note: Actual official high and low records may vary slightly from our data, if they occured in-between our weather recording intervals... More about our weather records

Advertising

Tamworth Weather History for the Previous 24 Hours

Scroll right to see more
 ConditionsComfort  
Time TempWeatherWind HumidityBarometerVisibility
8:30 am
Mon, Apr 24
63 °FSunny.5 mph68%30.21 "HgN/A
8:00 am59 °FSunny.5 mph77%30.21 "HgN/A
7:30 am54 °FSunny.No wind88%30.21 "HgN/A
7:00 am50 °FSunny.No wind88%30.18 "Hg5 mi
6:30 am48 °FSunny.No wind94%30.18 "HgN/A
6:00 am48 °FClear.No wind87%30.18 "HgN/A
5:30 am50 °FClear.1 mph88%30.18 "HgN/A
5:00 am50 °FClear.3 mph88%30.15 "HgN/A
4:30 am50 °FClear.7 mph88%30.15 "HgN/A
4:00 am50 °FClear.6 mph88%30.15 "HgN/A
3:30 am52 °FClear.8 mph88%30.15 "HgN/A
3:00 am52 °FClear.8 mph88%30.15 "HgN/A
2:30 am52 °FClear.5 mph82%30.18 "HgN/A
2:00 am54 °FClear.10 mph82%30.18 "HgN/A
1:00 am54 °FClear.6 mph82%30.18 "HgN/A
12:30 am54 °FClear.9 mph82%30.18 "HgN/A
12:00 am55 °FClear.10 mph77%30.18 "HgN/A
11:00 pm
Sun, Apr 23
55 °FClear.9 mph77%30.21 "HgN/A
10:30 pm55 °FClear.9 mph77%30.21 "HgN/A
10:00 pm57 °FClear.9 mph72%30.21 "HgN/A
9:30 pm57 °FClear.9 mph72%30.21 "HgN/A
9:00 pm59 °FPassing clouds.10 mph68%30.21 "HgN/A
8:30 pm61 °FClear.8 mph63%30.21 "HgN/A
8:00 pm63 °FPassing clouds.1 mph64%30.18 "HgN/A
7:30 pm63 °FPassing clouds.7 mph64%30.18 "HgN/A
7:00 pm63 °FClear.8 mph64%30.18 "HgN/A
6:30 pm64 °FClear.8 mph60%30.15 "HgN/A
6:00 pm64 °FPassing clouds.8 mph60%30.15 "HgN/A
5:00 pm73 °FSunny.1 mph38%30.12 "HgN/A
4:30 pm77 °FSunny.3 mph36%30.12 "HgN/A
4:00 pm75 °FSunny.3 mph36%30.12 "HgN/A
3:30 pm77 °FSunny.8 mph36%30.12 "HgN/A
3:00 pm77 °FSunny.6 mph34%30.15 "HgN/A
2:30 pm77 °FPartly sunny.8 mph36%30.15 "HgN/A
2:00 pm77 °FScattered clouds.2 mph36%30.15 "HgN/A
1:30 pm73 °FScattered clouds.No wind41%30.15 "HgN/A
1:00 pm73 °FMostly cloudy.5 mph41%30.18 "HgN/A
12:30 pm73 °FBroken clouds.3 mph41%30.18 "HgN/A
12:00 pm73 °FBroken clouds.7 mph44%30.18 "HgN/A
11:30 am72 °FScattered clouds.6 mph50%30.21 "HgN/A
11:00 am73 °FSunny.7 mph47%30.24 "HgN/A
10:30 am72 °FSunny.8 mph50%30.24 "HgN/A
10:00 am70 °FSunny.6 mph53%30.24 "HgN/A
9:30 am70 °FSunny.6 mph53%30.27 "HgN/A
9:00 am68 °FSunny.3 mph56%30.27 "HgN/A
Weather by CustomWeather, © 2017

See weather overviewHow to use our weather pages